Time,TemperatureF,DewpointF,PressureIn,WindDirection,WindDirectionDegrees,WindSpeedMPH,WindSpeedGustMPH,Humidity,HourlyPrecipIn,Conditions,Clouds,dailyrainin,SoftwareType,DateUTC
2013-03-07 00:02:00,38.0,25.0,-100.00,South,180,9.0,30.0,58,-99.99,,,-99.99,,2013-03-07 05:02:00,
2013-03-07 00:12:00,38.0,25.0,-100.00,SSW,205,13.0,24.0,58,-99.99,,,-99.99,,2013-03-07 05:12:00,
2013-03-07 00:22:00,38.0,25.0,-100.00,SSW,205,13.0,24.0,58,-99.99,,,-99.99,,2013-03-07 05:22:00,
2013-03-07 00:32:00,38.0,25.0,-100.00,South,185,12.0,28.0,58,-99.99,,,-99.99,,2013-03-07 05:32:00,
2013-03-07 00:42:00,38.0,24.0,-100.00,SSW,195,10.0,20.0,58,-99.99,,,-99.99,,2013-03-07 05:42:00,
2013-03-07 00:52:00,38.0,24.0,-100.00,SSW,195,10.0,20.0,58,-99.99,,,-99.99,,2013-03-07 05:52:00,
2013-03-07 01:02:00,38.0,24.0,-100.00,South,190,13.0,26.0,58,-99.99,,,-99.99,,2013-03-07 06:02:00,
2013-03-07 01:11:00,38.0,24.0,-100.00,SSW,200,17.0,30.0,58,-99.99,,,-99.99,,2013-03-07 06:11:00,
2013-03-07 01:22:00,38.0,24.0,-100.00,SSW,200,17.0,30.0,58,-99.99,,,-99.99,,2013-03-07 06:22:00,
2013-03-07 01:32:00,38.0,24.0,-100.00,South,180,12.0,20.0,58,-99.99,,,-99.99,,2013-03-07 06:32:00,
2013-03-07 01:42:00,38.0,24.0,-100.00,SSW,200,18.0,28.0,58,-99.99,,,-99.99,,2013-03-07 06:42:00,
2013-03-07 01:52:00,38.0,24.0,-100.00,SSW,200,14.0,30.0,58,-99.99,,,-99.99,,2013-03-07 06:52:00,
2013-03-07 02:02:00,38.0,24.0,-100.00,SSW,200,14.0,30.0,58,-99.99,,,-99.99,,2013-03-07 07:02:00,
2013-03-07 02:11:00,37.0,24.0,-100.00,SSW,200,12.0,22.0,58,-99.99,,,-99.99,,2013-03-07 07:11:00,
2013-03-07 02:22:00,37.0,24.0,-100.00,SSW,200,12.0,22.0,58,-99.99,,,-99.99,,2013-03-07 07:22:00,
2013-03-07 02:32:00,37.0,24.0,-100.00,SSW,200,12.0,28.0,58,-99.99,,,-99.99,,2013-03-07 07:32:00,
2013-03-07 02:43:00,37.0,24.0,-100.00,South,185,13.0,22.0,58,-99.99,,,-99.99,,2013-03-07 07:43:00,
2013-03-07 02:52:00,37.0,24.0,-100.00,South,185,13.0,22.0,58,-99.99,,,-99.99,,2013-03-07 07:52:00,
2013-03-07 03:03:00,37.0,24.0,-100.00,South,185,11.0,20.0,58,-99.99,,,-99.99,,2013-03-07 08:03:00,
2013-03-07 03:12:00,37.0,24.0,-100.00,SSW,210,7.0,17.0,58,-99.99,,,-99.99,,2013-03-07 08:12:00,
2013-03-07 03:23:00,37.0,24.0,-100.00,SSW,210,7.0,17.0,58,-99.99,,,-99.99,,2013-03-07 08:23:00,
2013-03-07 03:34:00,37.0,23.0,-100.00,South,190,7.0,18.0,58,-99.99,,,-99.99,,2013-03-07 08:34:00,
2013-03-07 03:44:00,37.0,23.0,-100.00,SSE,160,7.0,13.0,58,-99.99,,,-99.99,,2013-03-07 08:44:00,
2013-03-07 03:53:00,37.0,23.0,-100.00,SSE,160,7.0,13.0,58,-99.99,,,-99.99,,2013-03-07 08:53:00,
2013-03-07 04:14:00,37.0,23.0,-100.00,South,185,8.0,13.0,58,-99.99,,,-99.99,,2013-03-07 09:14:00,
2013-03-07 04:24:00,37.0,23.0,-100.00,South,185,8.0,13.0,58,-99.99,,,-99.99,,2013-03-07 09:24:00,
2013-03-07 04:33:00,37.0,24.0,-100.00,SSW,200,5.0,15.0,58,-99.99,,,-99.99,,2013-03-07 09:33:00,
2013-03-07 04:43:00,37.0,24.0,-100.00,South,185,7.0,17.0,58,-99.99,,,-99.99,,2013-03-07 09:43:00,
2013-03-07 04:52:00,37.0,24.0,-100.00,South,185,7.0,17.0,58,-99.99,,,-99.99,,2013-03-07 09:52:00,
2013-03-07 05:04:00,37.0,24.0,-100.00,SSE,165,9.0,17.0,58,-99.99,,,-99.99,,2013-03-07 10:04:00,
2013-03-07 05:13:00,37.0,24.0,-100.00,South,190,9.0,15.0,58,-99.99,,,-99.99,,2013-03-07 10:13:00,
2013-03-07 05:24:00,37.0,24.0,-100.00,South,190,9.0,15.0,58,-99.99,,,-99.99,,2013-03-07 10:24:00,
2013-03-07 05:33:00,37.0,24.0,-100.00,SSW,205,11.0,19.0,58,-99.99,,,-99.99,,2013-03-07 10:33:00,
2013-03-07 05:43:00,37.0,24.0,-100.00,SSW,195,12.0,18.0,58,-99.99,,,-99.99,,2013-03-07 10:43:00,
2013-03-07 05:52:00,37.0,24.0,-100.00,SSW,195,12.0,18.0,58,-99.99,,,-99.99,,2013-03-07 10:52:00,
2013-03-07 06:04:00,37.0,23.0,-100.00,SSW,195,10.0,16.0,58,-99.99,,,-99.99,,2013-03-07 11:04:00,
2013-03-07 06:12:00,37.0,23.0,-100.00,South,185,9.0,13.0,58,-99.99,,,-99.99,,2013-03-07 11:12:00,
2013-03-07 06:23:00,37.0,23.0,-100.00,South,185,9.0,13.0,58,-99.99,,,-99.99,,2013-03-07 11:23:00,
2013-03-07 06:33:00,36.0,23.0,-100.00,South,175,5.0,14.0,58,-99.99,,,-99.99,,2013-03-07 11:33:00,
2013-03-07 06:43:00,36.0,23.0,-100.00,SSW,195,6.0,15.0,58,-99.99,,,-99.99,,2013-03-07 11:43:00,
2013-03-07 06:53:00,36.0,23.0,-100.00,SSW,195,6.0,15.0,58,-99.99,,,-99.99,,2013-03-07 11:53:00,
2013-03-07 07:04:00,36.0,23.0,-100.00,South,175,5.0,12.0,58,-99.99,,,-99.99,,2013-03-07 12:04:00,
2013-03-07 07:13:00,36.0,23.0,-100.00,ESE,110,2.0,6.0,59,-99.99,,,-99.99,,2013-03-07 12:13:00,
2013-03-07 07:23:00,36.0,23.0,-100.00,ESE,110,2.0,6.0,59,-99.99,,,-99.99,,2013-03-07 12:23:00,
2013-03-07 07:34:00,36.0,23.0,-100.00,South,170,3.0,11.0,58,-99.99,,,-99.99,,2013-03-07 12:34:00,
2013-03-07 07:43:00,37.0,23.0,-100.00,SSE,160,2.0,9.0,58,-99.99,,,-99.99,,2013-03-07 12:43:00,
2013-03-07 07:52:00,37.0,23.0,-100.00,SSE,160,2.0,9.0,58,-99.99,,,-99.99,,2013-03-07 12:52:00,
2013-03-07 08:03:00,37.0,23.0,-100.00,South,190,5.0,10.0,57,-99.99,,,-99.99,,2013-03-07 13:03:00,
2013-03-07 08:13:00,37.0,24.0,-100.00,South,185,5.0,9.0,57,-99.99,,,-99.99,,2013-03-07 13:13:00,
2013-03-07 08:23:00,37.0,24.0,-100.00,South,185,5.0,9.0,57,-99.99,,,-99.99,,2013-03-07 13:23:00,
2013-03-07 08:33:00,38.0,24.0,-100.00,South,175,8.0,12.0,57,-99.99,,,-99.99,,2013-03-07 13:33:00,
2013-03-07 08:42:00,38.0,24.0,-100.00,SW,220,10.0,15.0,57,-99.99,,,-99.99,,2013-03-07 13:42:00,
2013-03-07 08:53:00,38.0,24.0,-100.00,SW,220,10.0,15.0,57,-99.99,,,-99.99,,2013-03-07 13:53:00,
2013-03-07 09:02:00,38.0,23.0,-100.00,SW,220,7.0,18.0,56,-99.99,,,-99.99,,2013-03-07 14:02:00,
2013-03-07 09:12:00,39.0,25.0,-100.00,South,190,10.0,15.0,55,-99.99,,,-99.99,,2013-03-07 14:12:00,
2013-03-07 09:23:00,39.0,25.0,-100.00,South,190,10.0,15.0,55,-99.99,,,-99.99,,2013-03-07 14:23:00,
2013-03-07 09:33:00,40.0,24.0,-100.00,South,190,13.0,20.0,53,-99.99,,,-99.99,,2013-03-07 14:33:00,
2013-03-07 09:43:00,40.0,24.0,-100.00,SSE,155,10.0,17.0,52,-99.99,,,-99.99,,2013-03-07 14:43:00,
2013-03-07 09:53:00,40.0,24.0,-100.00,SSE,155,10.0,17.0,52,-99.99,,,-99.99,,2013-03-07 14:53:00,
2013-03-07 10:03:00,41.0,24.0,-100.00,South,185,11.0,19.0,51,-99.99,,,-99.99,,2013-03-07 15:03:00,
2013-03-07 10:13:00,42.0,24.0,-100.00,South,170,6.0,15.0,50,-99.99,,,-99.99,,2013-03-07 15:13:00,
2013-03-07 10:33:00,40.0,23.0,-100.00,SSE,165,15.0,21.0,50,-99.99,,,-99.99,,2013-03-07 15:33:00,
2013-03-07 10:43:00,42.0,25.0,-100.00,SSE,155,7.0,18.0,50,-99.99,,,-99.99,,2013-03-07 15:43:00,
2013-03-07 10:52:00,42.0,25.0,-100.00,SSE,155,7.0,18.0,50,-99.99,,,-99.99,,2013-03-07 15:52:00,
2013-03-07 11:03:00,43.0,24.0,-100.00,SSE,160,6.0,16.0,48,-99.99,,,-99.99,,2013-03-07 16:03:00,
2013-03-07 11:13:00,43.0,24.0,-100.00,South,185,10.0,16.0,48,-99.99,,,-99.99,,2013-03-07 16:13:00,
2013-03-07 11:24:00,43.0,24.0,-100.00,South,185,10.0,16.0,48,-99.99,,,-99.99,,2013-03-07 16:24:00,
2013-03-07 11:33:00,42.0,24.0,-100.00,SSE,165,10.0,19.0,47,-99.99,,,-99.99,,2013-03-07 16:33:00,
2013-03-07 11:43:00,43.0,24.0,-100.00,SSW,195,9.0,22.0,47,-99.99,,,-99.99,,2013-03-07 16:43:00,
2013-03-07 11:44:00,46.0,25.0,-100.00,SE,145,9.0,21.0,43,-99.99,,,-99.99,,2013-03-07 16:44:00,
2013-03-07 11:52:00,43.0,24.0,-100.00,SSW,195,9.0,22.0,47,-99.99,,,-99.99,,2013-03-07 16:52:00,
2013-03-07 12:03:00,44.0,24.0,-100.00,SE,140,11.0,20.0,45,-99.99,,,-99.99,,2013-03-07 17:03:00,
2013-03-07 12:12:00,45.0,25.0,-100.00,South,175,10.0,16.0,44,-99.99,,,-99.99,,2013-03-07 17:12:00,
2013-03-07 12:23:00,45.0,25.0,-100.00,South,175,10.0,16.0,44,-99.99,,,-99.99,,2013-03-07 17:23:00,
2013-03-07 12:33:00,46.0,25.0,-100.00,SE,145,9.0,21.0,43,-99.99,,,-99.99,,2013-03-07 17:33:00,
2013-03-07 13:04:00,46.0,24.0,-100.00,SE,140,9.0,21.0,41,-99.99,,,-99.99,,2013-03-07 18:04:00,
2013-03-07 13:13:00,45.0,23.0,-100.00,SE,145,9.0,17.0,42,-99.99,,,-99.99,,2013-03-07 18:13:00,
2013-03-07 13:22:00,45.0,23.0,-100.00,SE,145,9.0,17.0,42,-99.99,,,-99.99,,2013-03-07 18:22:00,
2013-03-07 13:32:00,45.0,23.0,-100.00,SE,130,6.0,17.0,42,-99.99,,,-99.99,,2013-03-07 18:32:00,
2013-03-07 13:42:00,46.0,24.0,-100.00,ESE,115,10.0,18.0,42,-99.99,,,-99.99,,2013-03-07 18:42:00,
2013-03-07 13:52:00,46.0,24.0,-100.00,ESE,115,10.0,18.0,42,-99.99,,,-99.99,,2013-03-07 18:52:00,
2013-03-07 14:03:00,46.0,24.0,-100.00,ESE,105,7.0,14.0,41,-99.99,,,-99.99,,2013-03-07 19:03:00,
2013-03-07 14:12:00,45.0,24.0,-100.00,SSE,150,7.0,20.0,42,-99.99,,,-99.99,,2013-03-07 19:12:00,
2013-03-07 14:14:00,44.0,24.0,-100.00,SE,140,10.0,18.0,46,-99.99,,,-99.99,,2013-03-07 19:14:00,
2013-03-07 14:24:00,45.0,24.0,-100.00,SSE,150,7.0,20.0,42,-99.99,,,-99.99,,2013-03-07 19:24:00,
2013-03-07 14:35:00,45.0,24.0,-100.00,East,100,10.0,18.0,43,-99.99,,,-99.99,,2013-03-07 19:35:00,
2013-03-07 14:43:00,45.0,24.0,-100.00,ESE,110,13.0,16.0,44,-99.99,,,-99.99,,2013-03-07 19:43:00,
2013-03-07 14:52:00,44.0,24.0,-100.00,SE,140,10.0,18.0,46,-99.99,,,-99.99,,2013-03-07 19:52:00,
2013-03-07 15:02:00,44.0,24.0,-100.00,SE,140,10.0,18.0,46,-99.99,,,-99.99,,2013-03-07 20:02:00,
2013-03-07 15:34:00,43.0,26.0,-100.00,SE,125,9.0,15.0,52,-99.99,,,-99.99,,2013-03-07 20:34:00,
2013-03-07 15:43:00,43.0,26.0,-100.00,SSE,160,10.0,20.0,52,-99.99,,,-99.99,,2013-03-07 20:43:00,
2013-03-07 15:53:00,43.0,26.0,-100.00,SSE,160,10.0,20.0,52,-99.99,,,-99.99,,2013-03-07 20:53:00,
2013-03-07 16:03:00,43.0,27.0,-100.00,ESE,115,12.0,20.0,52,-99.99,,,-99.99,,2013-03-07 21:03:00,
2013-03-07 16:13:00,42.0,-44.0,-100.00,North,0,0.0,0.0,0,-99.99,,,-99.99,,2013-03-07 21:13:00,
2013-03-07 16:23:00,42.0,-44.0,-100.00,North,0,0.0,0.0,0,-99.99,,,-99.99,,2013-03-07 21:23:00,
2013-03-07 16:33:00,42.0,27.0,-100.00,SSE,155,11.0,17.0,56,-99.99,,,-99.99,,2013-03-07 21:33:00,
2013-03-07 16:43:00,42.0,28.0,-100.00,South,170,10.0,17.0,58,-99.99,,,-99.99,,2013-03-07 21:43:00,
2013-03-07 16:52:00,42.0,28.0,-100.00,South,170,10.0,17.0,58,-99.99,,,-99.99,,2013-03-07 21:52:00,
2013-03-07 17:02:00,42.0,28.0,-100.00,South,175,7.0,19.0,58,-99.99,,,-99.99,,2013-03-07 22:02:00,
2013-03-07 17:12:00,42.0,28.0,-100.00,South,175,7.0,16.0,58,-99.99,,,-99.99,,2013-03-07 22:12:00,
2013-03-07 17:23:00,42.0,28.0,-100.00,South,175,7.0,16.0,58,-99.99,,,-99.99,,2013-03-07 22:23:00,
2013-03-07 17:33:00,42.0,28.0,-100.00,SE,130,10.0,17.0,58,-99.99,,,-99.99,,2013-03-07 22:33:00,
2013-03-07 17:43:00,41.0,28.0,-100.00,SSW,195,8.0,16.0,58,-99.99,,,-99.99,,2013-03-07 22:43:00,
2013-03-07 17:53:00,41.0,28.0,-100.00,SSW,210,9.0,14.0,61,-99.99,,,-99.99,,2013-03-07 22:53:00,
2013-03-07 18:03:00,41.0,28.0,-100.00,SSW,210,9.0,14.0,61,-99.99,,,-99.99,,2013-03-07 23:03:00,
2013-03-07 18:13:00,40.0,29.0,-100.00,SSW,210,8.0,18.0,63,-99.99,,,-99.99,,2013-03-07 23:13:00,
2013-03-07 18:22:00,40.0,29.0,-100.00,SSW,210,8.0,18.0,63,-99.99,,,-99.99,,2013-03-07 23:22:00,
2013-03-07 18:44:00,39.0,30.0,-100.00,South,180,6.0,13.0,72,-99.99,,,-99.99,,2013-03-07 23:44:00,
2013-03-07 18:53:00,39.0,30.0,-100.00,South,180,6.0,13.0,72,-99.99,,,-99.99,,2013-03-07 23:53:00,
2013-03-07 19:13:00,38.0,32.0,-100.00,South,175,7.0,15.0,77,-99.99,,,-99.99,,2013-03-08 00:13:00,
2013-03-07 19:23:00,38.0,32.0,-100.00,South,175,7.0,15.0,77,-99.99,,,-99.99,,2013-03-08 00:23:00,
2013-03-07 19:34:00,38.0,32.0,-100.00,South,180,5.0,11.0,78,-99.99,,,-99.99,,2013-03-08 00:34:00,
2013-03-07 19:44:00,38.0,32.0,-100.00,South,175,5.0,9.0,78,-99.99,,,-99.99,,2013-03-08 00:44:00,
2013-03-07 19:53:00,38.0,32.0,-100.00,South,175,5.0,9.0,78,-99.99,,,-99.99,,2013-03-08 00:53:00,
2013-03-07 20:02:00,38.0,32.0,-100.00,SSE,160,6.0,12.0,79,-99.99,,,-99.99,,2013-03-08 01:02:00,
2013-03-07 20:12:00,37.0,31.0,-100.00,SSE,155,6.0,11.0,79,-99.99,,,-99.99,,2013-03-08 01:12:00,
2013-03-07 20:22:00,37.0,31.0,-100.00,SSE,155,6.0,11.0,79,-99.99,,,-99.99,,2013-03-08 01:22:00,
2013-03-07 20:33:00,37.0,32.0,-100.00,SSE,160,6.0,17.0,81,-99.99,,,-99.99,,2013-03-08 01:33:00,
2013-03-07 20:42:00,36.0,32.0,-100.00,South,175,6.0,14.0,84,-99.99,,,-99.99,,2013-03-08 01:42:00,
2013-03-07 20:52:00,36.0,32.0,-100.00,South,175,6.0,14.0,84,-99.99,,,-99.99,,2013-03-08 01:52:00,
2013-03-07 21:02:00,36.0,32.0,-100.00,SSE,155,6.0,10.0,85,-99.99,,,-99.99,,2013-03-08 02:02:00,
2013-03-07 21:12:00,36.0,32.0,-100.00,East,100,3.0,11.0,86,-99.99,,,-99.99,,2013-03-08 02:12:00,
2013-03-07 21:22:00,36.0,32.0,-100.00,East,100,3.0,11.0,86,-99.99,,,-99.99,,2013-03-08 02:22:00,
2013-03-07 21:32:00,36.0,33.0,-100.00,ESE,110,4.0,10.0,88,-99.99,,,-99.99,,2013-03-08 02:32:00,
2013-03-07 21:42:00,36.0,33.0,-100.00,SE,130,6.0,9.0,88,-99.99,,,-99.99,,2013-03-08 02:42:00,
2013-03-07 21:53:00,36.0,33.0,-100.00,SE,130,6.0,9.0,88,-99.99,,,-99.99,,2013-03-08 02:53:00,
2013-03-07 22:02:00,35.0,33.0,-100.00,South,190,4.0,11.0,89,-99.99,,,-99.99,,2013-03-08 03:02:00,
2013-03-07 22:12:00,35.0,32.0,-100.00,SE,145,9.0,15.0,89,-99.99,,,-99.99,,2013-03-08 03:12:00,
2013-03-07 22:22:00,35.0,32.0,-100.00,SE,145,9.0,15.0,89,-99.99,,,-99.99,,2013-03-08 03:22:00,
2013-03-07 22:33:00,35.0,32.0,-100.00,ESE,115,5.0,14.0,88,-99.99,,,-99.99,,2013-03-08 03:33:00,
2013-03-07 22:43:00,35.0,32.0,-100.00,South,175,6.0,10.0,88,-99.99,,,-99.99,,2013-03-08 03:43:00,
2013-03-07 22:52:00,35.0,32.0,-100.00,South,175,6.0,10.0,88,-99.99,,,-99.99,,2013-03-08 03:52:00,
2013-03-07 23:02:00,35.0,32.0,-100.00,SE,145,3.0,15.0,88,-99.99,,,-99.99,,2013-03-08 04:02:00,
2013-03-07 23:12:00,35.0,32.0,-100.00,SSE,160,3.0,6.0,88,-99.99,,,-99.99,,2013-03-08 04:12:00,
2013-03-07 23:22:00,35.0,32.0,-100.00,SSE,160,3.0,6.0,88,-99.99,,,-99.99,,2013-03-08 04:22:00,
2013-03-07 23:32:00,35.0,32.0,-100.00,South,170,5.0,8.0,89,-99.99,,,-99.99,,2013-03-08 04:32:00,
2013-03-07 23:42:00,34.0,32.0,-100.00,ESE,120,5.0,14.0,90,-99.99,,,-99.99,,2013-03-08 04:42:00,
2013-03-07 23:52:00,34.0,32.0,-100.00,ESE,120,5.0,14.0,90,-99.99,,,-99.99,,2013-03-08 04:52:00,